Weather History for Pine Ridge, SD

Change the Weather History Date:

Monday, May 27, 2013

  Actual Average Record
Temperature  
Mean Temperature 65 °F 59 °F  
Max Temperature 78 °F 73 °F 93 °F (2006)
Min Temperature 51 °F 46 °F 35 °F (2005)
Degree Days  
Heating Degree Days 0 6  
Month to date heating degree days 264 281  
Since 1 July heating degree days 7043 7101  
Cooling Degree Days 0 1  
Month to date cooling degree days 17 10  
Year to date cooling degree days 17 10  
Growing Degree Days 16 (Base 50)    
Moisture  
Dew Point 55 °F    
Average Humidity 74    
Maximum Humidity 100    
Minimum Humidity 48    
Precipitation  
Precipitation 0.05 in 0.09 in 0.06 in (1999)
Month to date precipitation 2.31 2.20  
Year to date precipitation 4.78 5.77  
Sea Level Pressure  
Sea Level Pressure 29.75 in    
Wind  
Wind Speed 9 mph (East)    
Max Wind Speed 37 mph    
Max Gust Speed 52 mph    
Visibility 6 miles    
Events Rain , Thunderstorm    
T = Trace of Precipitation, MM = Missing Value Source: NWS Daily Summary

Daily Weather History Graph

Daily Weather History Graph

Search for Another Location

Airport:

Trip Planner

Search our weather history database for the weather conditions in past years. The results will help you decide how hot, cold, wet, or windy it might be!

Date:

Astronomy

May. 27, 2013 Rise Set
Actual Time 5:16 AM MDT 8:18 PM MDT
Civil Twilight 4:42 AM MDT 8:52 PM MDT
Nautical Twilight 3:58 AM MDT 9:36 PM MDT
Astronomical Twilight 3:07 AM MDT 10:28 PM MDT
Moon 10:57 PM MDT (5/27) 7:57 AM MDT (5/27)
Length of Visible Light 16h 10m
Length of Day
15h 02m
Waning Gibbous, 90% of the Moon is Illuminated
May 27
Waning Gibbous
May 31
Last Quarter
Jun 8
New
Jun 16
First Quarter
Jun 23
Full

Hourly Weather History & Observations

Time (MDT) Temp. Dew Point Humidity Pressure Visibility Wind Dir Wind Speed Gust Speed Precip Events Conditions
12:08 AM 60.8 °F 59.0 °F 94% 29.83 in 3.0 mi East 15.0 mph - N/A   Overcast
12:37 AM 60.8 °F 57.2 °F 88% 29.83 in 5.0 mi East 13.8 mph 20.7 mph N/A   Overcast
12:52 AM 60.1 °F 57.9 °F 93% 29.77 in 4.0 mi East 12.7 mph - N/A   Overcast
1:38 AM 60.8 °F 59.0 °F 94% 29.80 in 3.0 mi East 9.2 mph - N/A   Overcast
1:48 AM 60.8 °F 59.0 °F 94% 29.79 in 2.5 mi East 10.4 mph - N/A   Overcast
1:52 AM 60.1 °F 59.0 °F 96% 29.73 in 2.0 mi East 11.5 mph - N/A   Overcast
2:52 AM 60.1 °F 60.1 °F 100% 29.75 in 2.0 mi ENE 3.5 mph - N/A   Overcast
3:14 AM 60.8 °F 59.0 °F 94% 29.81 in 1.8 mi North 9.2 mph - N/A   Overcast
3:31 AM 60.8 °F 59.0 °F 94% 29.80 in 2.5 mi NE 8.1 mph - 0.01 in   Overcast
3:40 AM 60.8 °F 59.0 °F 94% 29.81 in 3.0 mi NE 8.1 mph - 0.01 in   Overcast
3:52 AM 59.0 °F 59.0 °F 100% 29.76 in 3.0 mi ENE 5.8 mph - 0.01 in   Overcast
4:13 AM 59.0 °F 57.2 °F 94% 29.84 in 2.5 mi ENE 10.4 mph - N/A   Overcast
4:26 AM 59.0 °F 57.2 °F 94% 29.84 in 1.8 mi East 6.9 mph - N/A   Overcast
4:42 AM 57.2 °F 57.2 °F 100% 29.84 in 2.0 mi ENE 12.7 mph - N/A   Overcast
4:50 AM 57.2 °F 57.2 °F 100% 29.83 in 1.8 mi ENE 12.7 mph - N/A   Overcast
4:52 AM 57.0 °F 55.9 °F 96% 29.78 in 1.8 mi East 10.4 mph - N/A   Overcast
5:01 AM 57.2 °F 55.4 °F 94% 29.83 in 2.0 mi ENE 10.4 mph - N/A   Overcast
5:39 AM 57.2 °F 55.4 °F 94% 29.83 in 3.0 mi ENE 11.5 mph - N/A   Overcast
5:52 AM 55.9 °F 55.0 °F 97% 29.78 in 2.5 mi ENE 11.5 mph - N/A   Overcast
5:59 AM 55.4 °F 55.4 °F 100% 29.83 in 4.0 mi East 10.4 mph - N/A   Overcast
6:52 AM 57.0 °F 55.9 °F 96% 29.75 in 7.0 mi ENE 9.2 mph - N/A   Overcast
7:30 AM 57.2 °F 55.4 °F 94% 29.80 in 1.8 mi East 10.4 mph - N/A   Overcast
7:52 AM 57.0 °F 55.9 °F 96% 29.75 in 1.8 mi ENE 15.0 mph - N/A   Overcast
7:56 AM 57.2 °F 57.2 °F 100% 29.80 in 3.0 mi East 11.5 mph - N/A   Overcast
8:11 AM 57.2 °F 55.4 °F 94% 29.81 in 10.0 mi East 12.7 mph - N/A   Overcast
8:52 AM 59.0 °F 55.9 °F 90% 29.77 in 10.0 mi ESE 11.5 mph 19.6 mph N/A   Overcast
9:08 AM 59.0 °F 55.4 °F 88% 29.82 in 10.0 mi ESE 12.7 mph - N/A   Overcast
9:52 AM 62.1 °F 55.0 °F 78% 29.76 in 10.0 mi SE 11.5 mph - N/A   Overcast
10:52 AM 64.0 °F 55.9 °F 75% 29.75 in 10.0 mi SSE 6.9 mph - N/A   Overcast
11:52 AM 66.9 °F 57.0 °F 70% 29.72 in 10.0 mi WNW 3.5 mph - N/A   Overcast
12:52 PM 66.0 °F 57.9 °F 75% 29.72 in 10.0 mi WNW 8.1 mph - N/A   Overcast
1:52 PM 70.0 °F 60.1 °F 71% 29.68 in 10.0 mi West 3.5 mph - N/A   Overcast
2:52 PM 73.9 °F 61.0 °F 64% 29.64 in 10.0 mi SSW 6.9 mph - N/A   Partly Cloudy
3:52 PM 78.1 °F 59.0 °F 52% 29.61 in 10.0 mi SSW 13.8 mph 19.6 mph N/A   Partly Cloudy
4:52 PM 75.0 °F 59.0 °F 57% 29.60 in 10.0 mi South 8.1 mph - N/A   Clear
5:36 PM 71.6 °F 60.8 °F 69% 29.67 in 10.0 mi SSE 8.1 mph - N/A Thunderstorm Partly Cloudy
5:52 PM 71.1 °F 60.1 °F 68% 29.61 in 10.0 mi South 11.5 mph - N/A Thunderstorm Mostly Cloudy
6:35 PM 62.6 °F 46.4 °F 55% 29.69 in 10.0 mi SSE 26.5 mph 34.5 mph 0.04 in Thunderstorm Overcast
6:45 PM 68.0 °F 41.0 °F 37% 29.68 in 10.0 mi SSE 25.3 mph 34.5 mph 0.04 in   Overcast
6:52 PM 66.0 °F 43.0 °F 43% 29.62 in 10.0 mi SE 24.2 mph 35.7 mph 0.04 in   Mostly Cloudy
7:52 PM 64.0 °F 45.0 °F 50% 29.65 in 10.0 mi North 12.7 mph 19.6 mph N/A   Clear
8:24 PM 62.6 °F 51.8 °F 68% 29.76 in 10.0 mi North 15.0 mph 23.0 mph N/A   Scattered Clouds
8:52 PM 61.0 °F 50.0 °F 67% 29.70 in 10.0 mi NE 12.7 mph 21.9 mph 0.00 in   Clear
9:30 PM 57.2 °F 50.0 °F 77% 29.67 in 10.0 mi East 16.1 mph - 0.00 in Rain Light Rain
9:52 PM 57.0 °F 48.9 °F 74% 29.68 in 10.0 mi NE 6.9 mph - 0.00 in   Clear
10:52 PM 53.1 °F 48.9 °F 86% 29.71 in 10.0 mi Calm Calm - N/A   Clear
11:52 PM 54.0 °F 50.0 °F 86% 29.74 in 10.0 mi Calm Calm - N/A   Clear